Yakima, WA

8:05 AM PST on February 09, 2016 (GMT -0800)
Yakima Air Term-McAllister

Weather History for KYKM - February, 2014

Change the Weather History Date:

Thursday, February 13, 2014

  Actual Average Record
Temperature  
Mean Temperature 43 °F 36 °F  
Max Temperature 57 °F 46 °F 63 °F (1971)
Min Temperature 29 °F 26 °F -2 °F (1949)
Degree Days  
Heating Degree Days 22 29  
Month to date heating degree days 509 394  
Since 1 July heating degree days 4015 4112  
Cooling Degree Days 0 0  
Month to date cooling degree days 0 0  
Year to date cooling degree days 0 0  
Moisture  
Dew Point 29 °F    
Average Humidity 62    
Maximum Humidity 92    
Minimum Humidity 32    
Precipitation  
Precipitation T in 0.03 in 0.21 in (1962)
Month to date precipitation 0.89 0.38  
Year to date precipitation 1.19 1.52  
Snow  
Snow 0.00 in 0.10 in 3.10 in (1980)
Month to date snowfall 17.6 1.4  
Year to date snowfall 18.1 6.7  
Since 1 July snowfall 18.1 19.7  
Snow Depth 3.00 in    
Sea Level Pressure  
Sea Level Pressure 29.96 in    
Wind  
Wind Speed 6 mph (West)    
Max Wind Speed 16 mph    
Max Gust Speed 22 mph    
Visibility 10 miles    
Events      
T = Trace of Precipitation, MM = Missing Value Source: NWS Daily Summary

Daily Weather History Graph

Daily Weather History Graph

Search for Another Location

Airport or City:

Trip Planner

Search our weather history database for the weather conditions in past years. The results will help you decide how hot, cold, wet, or windy it might be!

Date:

Astronomy

Feb. 13, 2014 Rise Set
Actual Time 7:08 AM PST 5:24 PM PST
Civil Twilight 6:37 AM PST 5:55 PM PST
Nautical Twilight 6:02 AM PST 6:31 PM PST
Astronomical Twilight 5:27 AM PST 7:06 PM PST
Moon 4:38 PM PST (2/13) 6:05 AM PST (2/13)
Length of Visible Light 11h 18m
Length of Day
10h 15m
Waxing Gibbous, 99% of the Moon is Illuminated
Feb 13
Waxing Gibbous
Feb 14
Full
Feb 22
Last Quarter
Mar 1
New
Mar 8
First Quarter

Hourly Weather History & Observations

Time (PST) Temp. Windchill Dew Point Humidity Pressure Visibility Wind Dir Wind Speed Gust Speed Precip Events Conditions
12:53 AM 35.1 °F 31.0 °F 30.9 °F 85% 29.74 in 10.0 mi Variable 4.6 mph - 0.00 in   Clear
1:53 AM 33.1 °F - 28.9 °F 85% 29.78 in 10.0 mi Calm Calm - N/A   Partly Cloudy
2:53 AM 28.9 °F 22.8 °F 26.1 °F 89% 29.78 in 10.0 mi ENE 5.8 mph - N/A   Clear
3:53 AM 41.0 °F 38.0 °F 30.0 °F 65% 29.81 in 10.0 mi South 4.6 mph - N/A   Clear
4:53 AM 45.0 °F 41.8 °F 32.0 °F 60% 29.84 in 10.0 mi WSW 5.8 mph - N/A   Clear
5:53 AM 39.0 °F 32.3 °F 28.9 °F 67% 29.90 in 10.0 mi WNW 10.4 mph - N/A   Clear
6:53 AM 37.0 °F 34.5 °F 27.0 °F 67% 29.92 in 10.0 mi West 3.5 mph - N/A   Clear
7:53 AM 43.0 °F 36.8 °F 28.0 °F 56% 29.95 in 10.0 mi WNW 11.5 mph - N/A   Clear
8:53 AM 46.9 °F - 30.0 °F 52% 29.99 in 10.0 mi West 6.9 mph - N/A   Clear
9:53 AM 48.9 °F - 30.9 °F 50% 30.01 in 10.0 mi West 11.5 mph - N/A   Clear
10:53 AM 48.9 °F - 30.9 °F 50% 30.05 in 10.0 mi WSW 4.6 mph - N/A   Clear
11:53 AM 52.0 °F - 28.0 °F 40% 30.05 in 10.0 mi SSW 4.6 mph - N/A   Clear
12:53 PM 54.0 °F - 30.0 °F 40% 30.05 in 10.0 mi Calm Calm - N/A   Clear
1:53 PM 55.9 °F - 27.0 °F 33% 30.04 in 10.0 mi Calm Calm - N/A   Clear
2:53 PM 53.1 °F - 28.9 °F 40% 30.06 in 10.0 mi West 3.5 mph - N/A   Clear
3:53 PM 51.1 °F - 26.1 °F 38% 30.07 in 10.0 mi WNW 9.2 mph - N/A   Clear
4:53 PM 48.0 °F - 27.0 °F 44% 30.06 in 10.0 mi WSW 5.8 mph - N/A   Clear
5:53 PM 46.0 °F 41.9 °F 28.0 °F 50% 30.05 in 10.0 mi WSW 8.1 mph - N/A   Clear
6:53 PM 43.0 °F 38.8 °F 28.9 °F 58% 30.01 in 10.0 mi West 6.9 mph - N/A   Clear
7:53 PM 41.0 °F 38.0 °F 28.9 °F 62% 30.01 in 10.0 mi Variable 4.6 mph - N/A   Clear
8:53 PM 37.0 °F 34.5 °F 28.9 °F 73% 30.02 in 10.0 mi West 3.5 mph - N/A   Clear
9:53 PM 36.0 °F 32.1 °F 28.9 °F 76% 29.99 in 10.0 mi West 4.6 mph - N/A   Clear
10:53 PM 36.0 °F 30.3 °F 28.9 °F 76% 29.95 in 10.0 mi West 6.9 mph - N/A   Clear
11:53 PM 37.9 °F 32.7 °F 28.9 °F 70% 29.94 in 10.0 mi WNW 6.9 mph - N/A   Overcast